Anzere, Switzerland 16 day weather forecast

Slopes altitude range 1500 m - 2420m

Number of lifts: 11 Pistes: 52km

In some cases the lift and piste totals shown are for the ski domain (e.g. Three Valleys) rather than individual resort (e.g. Courchevel)

Overview

The 16 day weather forecast is fully updated 4 times every day.

    • Wed 26 JUN 2019
    • Wed 26
    • 21C 28C
    • Thu 27 JUN 2019
    • Thu 27
    • 21C 27C
    • Fri 28 JUN 2019
    • Fri 28
    • 21C 25C
    • Sat 29 JUN 2019
    • Sat 29
    • 17C 25C
    • Sun 30 JUN 2019
    • Sun 30
    • 18C 25C
    • Mon 01 JUL 2019
    • Mon 01
    • 19C 26C
    • Tue 02 JUL 2019
    • Tue 02
    • 15C 20C
    • Wed 03 JUL 2019
    • Wed 03
    • 14C 20C
    • Thu 04 JUL 2019
    • Thu 04
    • 19C 27C
    • Fri 05 JUL 2019
    • Fri 05
    • 19C 28C
    • Sat 06 JUL 2019
    • Sat 06
    • 12C 19C
    • Sun 07 JUL 2019
    • Sun 07
    • 11C 22C
    • Mon 08 JUL 2019
    • Mon 08
    • 19C 27C
    • Tue 09 JUL 2019
    • Tue 09
    • 19C 27C
    • Wed 10 JUL 2019
    • Wed 10
    • 19C 27C
    • Thu 11 JUL 2019
    • Thu 11
    • 20C 28C

Date:

Time Type 0°C level Temp Chill Snow Cloud Speed Gust Dir Press
3:00 4632m 15°C 15_4 0cm 0% 4mph 5mph 1024mB
6:00 4613m 14°C 14_2 0cm 4% 2mph 3mph 1025mB
9:00 4619m 21°C 21_2 0cm 31% 2mph 2mph 1024mB
12:00 4633m 28°C 28_6 0cm 16% 6mph 5mph 1024mB
15:00 4643m 28°C 28_9 0cm 0% 9mph 7mph 1023mB
18:00 4651m 28°C 28_2 0cm 0% 2mph 3mph 1024mB
21:00 4635m 16°C 16_7 0cm 0% 7mph 8mph 1026mB
0:00 4610m 16°C 16_6 0cm 15% 6mph 7mph 1025mB
3:00 4589m 15°C 15_5 0cm 0% 5mph 6mph 1024mB
6:00 4579m 14°C 14_1 0cm 0% 1mph 4mph 1024mB
9:00 4551m 21°C 21_4 0cm 0% 4mph 5mph 1023mB
12:00 4566m 27°C 27_6 0cm 0% 6mph 8mph 1022mB
15:00 4581m 27°C 27_7 0cm 0% 7mph 10mph 1021mB
18:00 4585m 27°C 27_3 0cm 0% 3mph 4mph 1020mB
21:00 4608m 15°C 15_1 0cm 0% 1mph 4mph 1023mB
0:00 4582m 14°C 14_1 0cm 0% 1mph 3mph 1022mB
3:00 4565m 13°C 13_1 0cm 0% 1mph 3mph 1021mB
6:00 4559m 13°C 13_1 0cm 0% 1mph 2mph 1021mB
9:00 4565m 21°C 21_5 0cm 0% 5mph 5mph 1020mB
12:00 4627m 25°C 25_7 0cm 0% 7mph 6mph 1018mB
15:00 4694m 25°C 25_8 0cm 0% 8mph 6mph 1017mB
18:00 4774m 25°C 25_5 0cm 0% 5mph 6mph 1018mB
21:00 4843m 13°C 13_2 0cm 0% 2mph 3mph 1020mB
0:00 4843m 12°C 12_4 0cm 0% 4mph 5mph 1019mB
3:00 4823m 13°C 13_6 0cm 0% 6mph 7mph 1019mB
6:00 4850m 12°C 12_6 0cm 0% 6mph 6mph 1019mB
9:00 4904m 17°C 17_1 0cm 0% 1mph 3mph 1019mB
12:00 4879m 25°C 25_6 0cm 0% 6mph 5mph 1017mB
15:00 4883m 25°C 25_7 0cm 0% 7mph 5mph 1017mB
18:00 4850m 25°C 25_4 0cm 0% 4mph 5mph 1018mB
21:00 4849m 14°C 14_4 0cm 0% 4mph 5mph 1020mB
0:00 4754m 13°C 13_6 0cm 0% 6mph 7mph 1020mB
3:00 4706m 13°C 13_5 0cm 0% 5mph 6mph 1020mB
6:00 4637m 12°C 12_3 0cm 0% 3mph 4mph 1020mB
9:00 4613m 18°C 18_4 0cm 0% 4mph 3mph 1020mB
12:00 4630m 25°C 25_6 0cm 0% 6mph 5mph 1019mB
15:00 4573m 25°C 25_7 0cm 0% 7mph 5mph 1018mB
18:00 4536m 25°C 25_3 0cm 0% 3mph 4mph 1019mB
21:00 4542m 14°C 14_4 0cm 0% 4mph 6mph 1020mB
0:00 4478m 14°C 14_6 0cm 0% 6mph 7mph 1020mB
3:00 4458m 14°C 14_6 0cm 0% 6mph 8mph 1019mB
6:00 4396m 14°C 14_3 0cm 0% 3mph 3mph 1020mB
9:00 4392m 19°C 19_0 0cm 67% 0mph 2mph 1019mB
12:00 4300m 26°C 26_6 0cm 66% 6mph 7mph 1018mB
15:00 4398m 25°C 25_6 0cm 57% 6mph 7mph 1017mB
18:00 4135m 25°C 25_1 0cm 62% 1mph 4mph 1018mB
21:00 4238m 13°C 13_8 0cm 100% 8mph 10mph 1020mB
0:00 4182m 13°C 13_6 0cm 100% 6mph 7mph 1020mB
3:00 4194m 11°C 11_4 0cm 75% 4mph 5mph 1018mB
6:00 4176m 11°C 11_3 0cm 66% 3mph 4mph 1019mB
9:00 4125m 15°C 15_4 0cm 95% 4mph 4mph 1018mB
12:00 4198m 20°C 20_7 0cm 97% 7mph 6mph 1017mB
15:00 4049m 19°C 19_5 0cm 100% 5mph 6mph 1017mB
18:00 4133m 19°C 19_4 0cm 100% 4mph 6mph 1017mB
21:00 4098m 12°C 12_3 0cm 100% 3mph 4mph 1018mB
0:00 4053m 10°C 10_1 0cm 100% 1mph 2mph 1018mB
3:00 3901m 10°C 10_3 0cm 94% 3mph 4mph 1018mB
6:00 3948m 10°C 10_2 0cm 95% 2mph 2mph 1018mB
9:00 4011m 14°C 14_3 0cm 38% 3mph 2mph 1018mB
12:00 4023m 20°C 20_6 0cm 26% 6mph 4mph 1017mB
15:00 4018m 23°C 23_7 0cm 48% 7mph 6mph 1017mB
18:00 4093m 23°C 23_5 0cm 38% 5mph 8mph 1017mB
21:00 4042m 15°C 15_2 0cm 72% 2mph 3mph 1018mB
0:00 3981m 14°C 14_3 0cm 69% 3mph 3mph 1018mB
3:00 3909m 14°C 14_4 0cm 0% 4mph 4mph 1017mB
6:00 3968m 14°C 14_2 0cm 30% 2mph 2mph 1017mB
9:00 4010m 19°C 19_3 0cm 16% 3mph 3mph 1017mB
12:00 4041m 27°C 27_8 0cm 54% 8mph 12mph 1016mB
15:00 4064m 28°C 28_10 0cm 49% 10mph 15mph 1016mB
18:00 4088m 28°C 28_3 0cm 24% 3mph 4mph 1016mB
21:00 4006m 17°C 17_7 0cm 0% 7mph 7mph 1017mB
0:00 4033m 16°C 16_6 0cm 17% 6mph 7mph 1017mB
3:00 4054m 16°C 16_5 0cm 57% 5mph 6mph 1016mB
6:00 3998m 16°C 16_4 0cm 45% 4mph 6mph 1017mB
9:00 4028m 19°C 19_7 0cm 66% 7mph 18mph 1017mB
12:00 4012m 28°C 28_13 0cm 46% 13mph 23mph 1017mB
15:00 4035m 29°C 29_14 0cm 30% 14mph 26mph 1016mB
18:00 4053m 29°C 29_4 0cm 42% 4mph 8mph 1018mB
21:00 3995m 15°C 15_2 0cm 100% 2mph 2mph 1020mB
0:00 3947m 15°C 15_2 0cm 100% 2mph 3mph 1021mB
Afternoon 0.0416667mm 0.125 3538m 19°C 19_5 0cm 90% 5mph 4mph 1022mB
Morning 0mm 0 4030m 8°C 8_2 0cm 0% 2mph 3mph 1024mB
Afternoon 0mm 0 4483m 22°C 22_5 0cm 1% 5mph 4mph 1020mB
Morning 0mm 0 4408m 13°C 13_3 0cm 0% 3mph 4mph 1020mB
Afternoon 0mm 0.0625 4428m 27°C 27_5 0cm 20% 5mph 5mph 1017mB
Morning 0.0625mm 0.1875 4317m 17°C 17_4 0cm 26% 4mph 4mph 1018mB
Afternoon 0.291667mm 0.9375 4302m 27°C 27_7 0cm 23% 7mph 11mph 1017mB
Morning 0.583333mm 1.8125 4129m 16°C 16_5 0cm 67% 5mph 6mph 1019mB
Afternoon 0.416667mm 1.3125 4178m 27°C 27_5 0cm 46% 5mph 8mph 1016mB
Morning 0mm 0 4061m 16°C 16_4 0cm 49% 4mph 5mph 1016mB
Afternoon 0.145833mm 0.5 4138m 28°C 28_5 0cm 3% 5mph 5mph 1011mB
Morning 0.270833mm 0 3821m 13°C 13_7 0cm 91% 7mph 13mph 1011mB

16 day outlook at a glance

Forecast issued: 6/26/2019 7:47:56 AM

Chat

Your comments and questions. In a resort? Let us know what it's like!


Characters left 250

For terms and conditions see Readers Comments on the Cookie and privacy policy page.